Regional Weather Roundup
Issued by NWS

Home | Current Version | Previous Version | Text Only | Print | Product List | Glossary On
Versions: 1 2 3 4 5 6 7 8 9 10 11 12 13 14 15 16 17 18 19 20 21 22 23 24 25 26 27 28 29 30 31 32 33 34 35 36 37 38 39 40 41 42 43 44 45 46 47 48 49 50
000
ASUS42 KKEY 261810
RWRKEY

FLORIDA REGIONAL WEATHER ROUNDUP FOR THE FLORIDA KEYS
NATIONAL WEATHER SERVICE KEY WEST FLORIDA
200 PM EDT SAT JUL 26 2014

...SOUTH FLORIDA AND THE KEYS...

CITY           SKY/WX    TMP DP  RH WIND       PRES   REMARKS
FORT MYERS     CLOUDY    87  75  67 CALM      30.09S HX  96
SW REGIONAL AP CLOUDY    84  75  74 SE6       30.10F HX  92
NAPLES         CLOUDY    84  81  90 W3        30.11S HX  99
MIAMI          PTSUNNY   90  75  61 VRB6      30.10F HX 100
WEST KENDALL   CLOUDY    92  73  53 SW3       30.09F HX 100
HOMESTEAD      NOT AVBL
MARATHON       SUNNY     93  74  53 SE6       30.10F HX 103
BOCA CHICA NAS MOSUNNY   91  74  57 S8        30.11R HX 100
KEY WEST INTL  SUNNY     90  74  59 SE6       30.11S HX  99

...INTERNATIONAL WEATHER...

CITY           SKY/WX    TMP DP  RH WIND       PRES   REMARKS
NASSAU BAHAMAS MOSUNNY   90  75  62 SE6       30.12S HX 100
CANCUN MEXICO  MOSUNNY   91  75  59 NE9       30.06F HX 102
COZUMEL MEXICO MOSUNNY   88  77  70 E12       30.06S HX 100

ADJACENT COASTAL WATERS...

STATION/POSITION TIME  SKY/WX   TEMP    WIND        PRES    WAVE
                                AIR SEA DIR/SP/G            HT/PER
                 (UTC)          (F)     (DEG/KT/KT) (MB)    (FT/S)
PULASKI SHOAL LI 1800            85      30/  9/ 10 1019.7F
SAND KEY         1800            85     120/  6/  9 1019.5F
SOMBRERO KEY     1800            87     120/  8/  9 1020.1F
LONG KEY         1800            87 90  150/  6/  8 1020.1F
MOLASSES REEF    1800            85 87  150/  2/  4 1019.5F
FOWEY ROCKS      1800            87 87  160/  9/ 11 1019.8F
Buoy 42080       NOT AVBL

$$


USA.gov is the U.S. government's official web portal to all federal, state and local government web resources and services.